Tracking 19564 objects as of 19-Mar-2019
HD Live streaming from Space Station
objects crossing your sky now

NOAA 6

Track NOAA 6 now!
10-day predictions
NOAA 6 is classified as:


NORAD ID: 11416
Int'l Code: 1979-057A
Perigee: 779.4 km
Apogee: 794.8 km
Inclination: 98.6 °
Period: 100.5 minutes
Semi major axis: 7158 km
RCS: 3.9008 m2 (large)
Launch date: June 27, 1979
Source: United States (US)
Launch site: AIR FORCE WESTERN TEST RANGE (AFWTR)
aabbcc
Your satellite tracking list
Your tracking list is empty




NASA's NSSDC Master Catalog

Two Line Element Set (TLE):
1 11416U 79057A   19077.48791188  .00000037  00000-0  29342-4 0  9995
2 11416  98.6339  71.7958 0010759 154.4871 205.6846 14.33521461 71663
Source of the keplerian elements: AFSPC